Miscellaneous Local Product
Issued by NWS Hastings, NE

Home | Current Version | Previous Version | Graphics & Text | Print | Product List | Glossary On
Versions: 1 2 3 4 5 6 7 8 9 10 11 12 13 14 15 16 17 18 19 20 21 22 23 24 25 26 27 28 29 30 31 32 33 34 35 36 37 38 39 40 41 42 43 44 45 46 47 48 49 50
000
AXUS43 KGID 012202
MISGRI

GID CWA HOURLY WEATHER ROUNDUP
NATIONAL WEATHER SERVICE HASTINGS NE
500 PM CDT TUE SEP 01 2015

NOTE: "FAIR" INDICATES FEW OR NO CLOUDS BELOW 12,000 FEET WITH NO
SIGNIFICANT WEATHER AND/OR OBSTRUCTIONS TO VISIBILITY.

...SOUTH CENTRAL NEBRASKA...

CITY           SKY/WX    TMP DP  RH WIND       PRES   REMARKS
GRAND ISLAND   MOSUNNY   91  62  37 SW16      29.88F HX  91
HASTINGS       MOSUNNY   90  63  40 S10       29.88F HX  91
KEARNEY        MOSUNNY   88  64  45 S9        29.89F
ORD            PTSUNNY   90  64  42 S10G22    29.85F HX  91
YORK           MOSUNNY   90  68  48 S14G20    29.88F HX  93
AURORA         MOSUNNY   91  64  40 S14G20    29.87F HX  92
LEXINGTON      MOSUNNY   90  65  43 SE13      29.89F HX  91
HOLDREGE       PTSUNNY   88  58  36 S7        29.90F
HEBRON         MOSUNNY   90  58  33 S17G25    29.88F

...NEBRASKA PANHANDLE...

CITY           SKY/WX    TMP DP  RH WIND       PRES   REMARKS
CHADRON        SUNNY     97  38  13 W7G17     29.83F HX  92
ALLIANCE       SUNNY     94  37  13 SW10G23   29.90F
SCOTTSBLUFF    SUNNY     94  41  16 VRB5      29.91F HX  90
SIDNEY         SUNNY     93  35  13 VRB3      29.96F

...WESTERN AND NORTH CENTRAL NEBRASKA...

CITY           SKY/WX    TMP DP  RH WIND       PRES   REMARKS
VALENTINE      SUNNY     93  55  27 S14       29.83F HX  91
AINSWORTH      SUNNY     89  60  36 SE12      29.87F
ONEILL         PTSUNNY   85  69  59 S7        29.87F
BROKEN BOW     MOSUNNY   90  63  40 SW5       29.88F HX  91
IMPERIAL       SUNNY     93  47  20 SW7       29.92F
NORTH PLATTE   SUNNY     91  56  30 SW6       29.88F
MCCOOK         MOSUNNY   94  57  28 E7        29.89F HX  92

...EASTERN NEBRASKA...

CITY           SKY/WX    TMP DP  RH WIND       PRES   REMARKS
NORFOLK        MOSUNNY   88  69  53 S14       29.86F HX  92
SO SIOUX CITY  MOSUNNY   86  73  65 SE13G20   29.87F HX  93
TEKAMAH        MOSUNNY   87  74  64 S13       29.88F HX  95
COLUMBUS       MOSUNNY   90  68  48 S9        29.86F HX  93
ALBION         MOSUNNY   85  68  56 S9        29.87F
OMAHA EPPLEY   PTSUNNY   89  71  55 S14       29.90F HX  95
OFFUTT AFB     PTSUNNY   88  73  61 SE9       29.90F HX  95
MILLARD        PTSUNNY   88  73  60 SE13G18   29.90F HX  95
LINCOLN        PTSUNNY   91  66  43 S22       29.89F HX  93
NEBRASKA CITY  MOSUNNY   88  61  40 S13G18    29.92F
BEATRICE       PTSUNNY   88  67  49 S13       29.90F HX  90
FALLS CITY     SUNNY     90  65  43 S16G25    29.93F HX  92

...NORTHERN KANSAS...

CITY           SKY/WX    TMP DP  RH WIND       PRES   REMARKS
GOODLAND       SUNNY     92  46  20 S5        29.96F
HILL CITY      PTSUNNY   96  57  27 S5        29.87F HX  95
NORTON         CLEAR     91  55  29 SE6       29.88S
PHILLIPSBURG   SUNNY     93  57  29 CALM      29.87F HX  92
SMITH CENTER   SUNNY     93  57  29 SW6       29.87F HX  92
HAYS           MOSUNNY   99  57  25 S21G28    29.88F HX  97
RUSSELL        MOSUNNY   98  59  27 S23G29    29.87F HX  98
CONCORDIA      MOSUNNY   92  63  38 S21G29    29.89F HX  93
SALINA         SUNNY     95  62  33 S21G29    29.89F HX  96
TOPEKA         SUNNY     90  66  45 S10       29.96F HX  92



USA.gov is the U.S. government's official web portal to all federal, state and local government web resources and services.